Regional Weather Roundup
Issued by NWS

Home | Current Version | Previous Version | Text Only | Print | Product List | Glossary Off
Versions: 1 2 3 4 5 6 7 8 9 10 11 12 13 14 15 16 17 18 19 20 21 22 23 24 25 26 27 28 29 30 31 32 33 34 35 36 37 38 39 40 41 42 43 44 45 46 47 48 49 50

000
ASUS43 KLMK 260710
RWRKY
KENTUCKY REGIONAL WEATHER ROUNDUP
NATIONAL WEATHER SERVICE LOUISVILLE KY
300 AM EDT THU MAY 26 2016

NOTE "FAIR" INDICATES FEW OR NO CLOUDS BELOW 12,000 FEET
WITH NO SIGNIFICANT WEATHER AND/OR OBSTRUCTIONS TO VISIBILITY.

KYZ001>023-026-027-061>063-070>075-260800-
WESTERN AND SOUTH CENTRAL KENTUCKY

CITY           SKY/WX    TMP DP  RH WIND       PRES   REMARKS
PADUCAH        MOCLDY    68  62  81 VRB5      30.04R
HENDERSON      PTCLDY    64  61  88 S7        30.03S
OWENSBORO      MOCLDY    66  65  97 SW7       30.06R
HOPKINSVILLE   CLEAR     64  64 100 SE3       30.06F
BOWLING GREEN  CLOUDY    67  64  90 SW7       30.08R
GLASGOW        CLOUDY    64  64 100 CALM      30.09S
$$

KYZ024-025-028>034-038-045-046-053-260800-
NORTH CENTRAL KENTUCKY

CITY           SKY/WX    TMP DP  RH WIND       PRES   REMARKS
LOUISVILLE/SDF CLOUDY    70  62  76 S6        30.06S
LOUISVILLE/LOU CLOUDY    69  62  78 S3        30.07S
FORT KNOX      CLOUDY    66  63  91 S5        30.06S
$$

KYZ035>037-039>044-047>052-055>060-089>105-260800-
NORTHEAST KENTUCKY

CITY           SKY/WX    TMP DP  RH WIND       PRES   REMARKS
LEXINGTON      PTCLDY    66  61  84 SW6       30.10S
COVINGTON      CLOUDY    68  63  84 S6        30.07S
FRANKFORT      PTCLDY    67  61  81 SW6       30.08S
$$

KYZ054-064>069-076>088-106>120-260800-
SOUTHEAST KENTUCKY

CITY           SKY/WX    TMP DP  RH WIND       PRES   REMARKS
JACKSON        CLOUDY    71  58  63 CALM      30.12R
LONDON         MOCLDY    67  60  78 W5        30.12R
SOMERSET       PTCLDY    64  63  94 CALM      30.13R
MIDDLESBORO    CLOUDY    64  62  93 CALM      30.14R
MONTICELLO     MOSUNNY   63  61  94 E3        30.13R FOG
$$





USA.gov is the U.S. government's official web portal to all federal, state and local government web resources and services.